Regional Weather Roundup
Issued by NWS

Home | Current Version | Previous Version | Graphics & Text | Print | Product List | Glossary On
Versions: 1 2 3 4 5 6 7 8 9 10 11 12 13 14 15 16 17 18 19 20 21 22 23 24 25 26 27 28 29 30 31 32 33 34 35 36 37 38 39 40 41 42 43 44 45 46 47 48 49 50
000
ASUS43 KLOT 012106
RWRIL

ILLINOIS REGIONAL WEATHER ROUNDUP
NATIONAL WEATHER SERVICE CHICAGO/ROMEOVILLE IL
300 PM CST SUN FEB 01 2015

NOTE: "FAIR" INDICATES FEW OR NO CLOUDS BELOW 12,000 FEET WITH NO
SIGNIFICANT WEATHER AND/OR OBSTRUCTIONS TO VISIBILITY.

* THESE STATIONS ARE NOT UNDER NWS QUALITY CONTROL. THEY ALSO MAY NOT
  REPORT WEATHER SUCH AS PRECIPITATION OR FOG.

ILZ001-002-007-009-015-016-024-012200-
NORTHWEST ILLINOIS

CITY           SKY/WX    TMP DP  RH WIND       PRES   REMARKS
MOLINE         SNOW      24  20  84 NE14G24   29.78R VSB 1/2 WCI  12
STERLING*        N/A    N/A N/A N/A MISG        N/A
SAVANNA*       LGT SNOW  20  16  83 N14       29.83R VSB 3/4 WCI   7
$$

ILZ003-004-008-010-011-017-018-012200-
NORTH CENTRAL ILLINOIS

CITY           SKY/WX    TMP DP  RH WIND       PRES   REMARKS
ROCKFORD       SNOW      23  18  81 NE24G37   29.82F VSB 1/4 WCI   7
FREEPORT*      SNOW      18  15  88 N16G28    29.84S VSB 1/2 WCI   3
ROCHELLE*      SNOW      22  20  92 NE25G32   29.76F VSB 1/2 WCI   6
DE KALB*       LGT SNOW  21  19  91 NE28G37   29.76R VSB 1   WCI   3
PERU*          SNOW      28  28 100 NE20      29.71R VSB 1/4 WCI  14
$$

ILZ005-006-012>014-019>023-012200-
NORTHEAST ILLINOIS

CITY           SKY/WX    TMP DP  RH WIND       PRES   REMARKS
CHICAGO-OHARE  HVY SNOW  23  21  92 NE22G33   29.75F VSB 1/4 WCI   8
CHICAGO-MIDWAY LGT SNOW  27  24  89 NE21G32   29.73F VSB 3/4 WCI  13
AURORA         HVY SNOW  25  20  81 NE29G36   29.73S VSB 1/4 WCI   8
LANSING*       SNOW      28  26  96 NE10      29.70S VSB 1/4 WCI  18
JOLIET*        LGT SNOW  27  25  91 NE14      29.70R VSB 3/4 WCI  16
WAUKEGAN       HVY SNOW  21  19  92 NE25G33   29.82F VSB<1/4 WCI   4
DUPAGE AIRPORT SNOW      24  20  84 NE24G35   29.74F VSB 1/2 WCI   8
KANKAKEE*      LGT SNOW  33  32  98 NE12      29.64F WCI  24
WHEELING       HVY SNOW  23  20  88 NE21G35   29.80F VSB 1/4 WCI   8
MORRIS*        LGT SNOW  28  27  96 NE9       29.68S VSB 3/4 WCI  19
ROMEOVILLE*    SNOW      27  25  94 NE18      29.70S VSB 1/2 WCI  13
NORTHERLY ISL    N/A     26  25  96 NE26        N/A  WCI  11
$$

LMZ740>746-012200-
SOUTHERN LAKE MICHIGAN

STATION/POSITION SKY/WX   TEMP    WIND        PRES    VSBY  WAVE
                          AIR SEA DIR/SP/G                  HT/PER
                          (F)     (DEG/KT/KT) (MB)    (MI)  (FT/S)
WAUKEGAN HARBOR            23      40/ 35/ 39   N/A
HARRISON CRIB              25      40/ 30/ 37   N/A
BURNHAM HARBOR             26      40/ 22/ 27   N/A
CALUMET HARBOR             26      30/ 25/ 30   N/A
MICHIGAN CITY              24      40/ 20/ 27   N/A
$$

ILZ025>027-034>036-040-047-049-050-058-095>099-012200-
WEST-CENTRAL ILLINOIS

CITY           SKY/WX    TMP DP  RH WIND       PRES   REMARKS
QUINCY         LGT SNOW  33  31  92 N9        29.67R FOG     WCI  25
GALESBURG*     SNOW      25  23  93 N25G35    29.71R VSB 1/2 WCI   9
MACOMB*        LGT SNOW  28  26  94 N22G32    29.71R WCI  14
JACKSONVILLE*  LGT RAIN  35  33  93 NW6       29.64S WCI  30
PITTSFIELD*    LGT RAIN  35  33  92 NW7       29.66R WCI  29
$$

ILZ028>032-037-038-041>044-048-051>054-059>061-012200-
CENTRAL ILLINOIS

CITY           SKY/WX    TMP DP  RH WIND       PRES   REMARKS
PONTIAC        MIX PCPN  33  32  98 NE25      29.63F WCI  19
BLOOMINGTON    FOG       32  32 100 NE12      29.61F VSB 3/4 WCI  23
DECATUR        CLOUDY    35  33  92 W6        29.61S WCI  30
PEORIA         LGT SNOW  33  29  85 NE15G23   29.65R VSB 1   WCI  23
LACON*         LGT SNOW  28  25  88 NE12G25   29.68R VSB 1   WCI  18
LINCOLN*       CLOUDY    35  34  96 CALM      29.62S FOG
SPRINGFIELD    CLOUDY    34  32  92 W6        29.63R WCI  29
TAYLORVILLE    CLOUDY    34  34 100 W7        29.62R FOG     WCI  28
$$

ILZ033-039-045-046-055>057-062-063-012200-
EAST-CENTRAL ILLINOIS

CITY           SKY/WX    TMP DP  RH WIND       PRES   REMARKS
CHAMPAIGN      LGT SNOW  34  33  96 CALM      29.59F VSB 3/4
DANVILLE*      HVY RAIN  33  32  99 CALM      29.57F VSB 3/4
RANTOUL*       LGT SNOW  34  33  97 CALM      29.60F VSB 1
MATTOON        LGT RAIN  36  34  92 W6        29.59S FOG     WCI  31
PARIS*         DRZL/FOG  35  35 100 CALM      29.60S VSB 1
$$

ILZ079-100>102-012200-
SOUTHWEST ILLINOIS

CITY           SKY/WX    TMP DP  RH WIND       PRES   REMARKS
ALTON          CLOUDY    41  39  93 W12       29.65
BELLEVILLE     CLOUDY    42  42  99 W8        29.64R
CAHOKIA*       CLOUDY    42  38  85 W10       29.65R
SPARTA*        CLOUDY    43  41  91 W8        29.64S
$$

ILZ064>066-069>071-074>076-080>082-084>086-088>090-092>094-012200-
SOUTH-CENTRAL ILLINOIS

CITY           SKY/WX    TMP DP  RH WIND       PRES   REMARKS
CARBONDALE     CLOUDY    47  43  86 W9        29.64R
CAIRO*         CLOUDY   N/A N/A N/A W12       29.66R
EFFINGHAM*     DRIZZLE   38  37  92 SW5       29.63R WCI  35
MARION         CLOUDY    48  46  93 SW12      29.65R
MT. VERNON     CLOUDY    45  39  81 W9        29.62S
CENTRALIA*     CLOUDY    42  38  87 W13       29.62S
SALEM*         CLOUDY    44  41  91 W13G20    29.62R
METROPOLIS*    LGT RAIN  50  50 100 W10G16    29.64R
$$

ILZ067-068-072-073-078-083-087-091-012200-
SOUTHEAST ILLINOIS

CITY           SKY/WX    TMP DP  RH WIND       PRES   REMARKS
LAWRENCEVILLE  LGT RAIN  44  44 100 SW9       29.60S FOG
FLORA*         LGT RAIN  41  41  99 W8        29.62R
FAIRFIELD*     CLOUDY    44  44  99 SW9       29.61S FOG
HARRISBURG*    CLOUDY    46  46 100 W8        29.64S
ROBINSON*      LGT RAIN  41  41  98 SW6       29.60F
CARMI*         LGT RAIN  47  47  99 SW8       29.62R
$$

ABBREVIATIONS USED IN REMARKS
   TC - TEMPERATURE IN CELSIUS
  WCI - WIND CHILL INDEX
   HX - HEAT INDEX
  VSB - VISIBILITY
$$




USA.gov is the U.S. government's official web portal to all federal, state and local government web resources and services.